GFSNE_925_temp_021.txt.gz
Temp
5 5 5 5 4 4 4 4 4 3 4 4 4 4 4 3 3 2 2 2 1 1 1 1 1 1 2 2 2 4 5 5 5 5 6 7 9 10
4 5 5 4 4 4 4 4 4 3 3 3 3 3 2 2 2 1 1 0 1 1 1 1 1 1 1 2 2 2 3 5 4 5 5 6 8 10
4 5 4 4 3 3 3 3 3 3 3 3 3 2 1 0 0 0 0 0 1 1 2 1 1 1 1 1 2 2 2 4 4 5 6 6 6 9
5 4 3 3 3 3 3 3 2 2 2 2 1 -0 -1 -1 -1 -0 -0 0 1 1 1 1 -0 0 1 1 1 2 2 2 4 4 6 6 5 7
3 3 3 2 2 2 1 1 0 0 0 -1 -1 -1 -1 -1 -1 -0 -0 -0 0 1 -0 -1 -1 -0 0 1 1 2 2 2 2 2 4 5 6 5
2 2 2 1 1 -1 -2 -2 -1 -2 -2 -2 -2 -2 -1 -1 -1 -1 -1 -0 -0 0 -0 -1 -2 0 1 1 1 1 1 2 2 2 2 4 5 5
2 2 1 0 -2 -3 -4 -4 -4 -3 -3 -3 -3 -3 -2 -2 -2 -2 -1 -1 -1 -0 -1 -2 -1 -0 1 1 1 0 1 2 2 2 1 3 5 5
1 1 0 -0 -1 -3 -4 -5 -5 -5 -4 -4 -4 -2 -2 -3 -2 -3 -3 -2 -0 -1 -2 -2 -2 0 1 2 2 1 1 1 1 1 1 1 4 4
0 -0 -0 -1 -2 -2 -3 -4 -4 -4 -4 -4 -4 -4 -4 -4 -4 -4 -3 -3 -2 -1 -2 -2 -1 0 0 1 1 1 0 0 -0 0 1 1 0 1
-1 -1 -1 -2 -3 -5 -5 -5 -4 -3 -3 -3 -4 -4 -5 -5 -5 -4 -4 -3 -3 -2 -1 -1 -0 0 0 0 1 0 -0 -0 -0 0 1 0 0 -0
-1 -2 -2 -3 -4 -6 -6 -6 -5 -4 -3 -4 -5 -5 -6 -6 -6 -5 -4 -3 -3 -2 -2 -2 -1 -0 -0 -0 -0 0 -0 -1 -1 -1 -0 -0 -0 -0
-2 -2 -3 -5 -6 -7 -7 -7 -6 -5 -6 -6 -6 -5 -5 -4 -4 -5 -4 -4 -3 -3 -2 -3 -1 -0 0 0 0 0 -0 -1 -2 -1 -1 -1 -0 0
-3 -3 -3 -5 -7 -8 -8 -7 -7 -8 -7 -6 -6 -5 -5 -4 -4 -4 -4 -4 -4 -3 -2 -3 -2 -1 -0 -0 -1 0 0 -1 -1 -2 -2 -1 -0 -0
-4 -4 -4 -6 -7 -8 -7 -7 -7 -8 -6 -6 -6 -5 -5 -5 -4 -4 -4 -3 -4 -4 -3 -4 -3 -2 -3 -1 0 -0 0 -0 -1 -2 -2 -2 -0 -1
-5 -5 -6 -7 -7 -6 -5 -6 -7 -6 -6 -6 -6 -6 -6 -5 -5 -4 -4 -4 -3 -3 -3 -3 -3 -3 -2 -2 -1 -1 -0 0 -0 -0 -1 -1 -1 -1
-5 -4 -5 -5 -5 -5 -5 -5 -5 -6 -7 -6 -7 -6 -6 -5 -5 -5 -4 -4 -3 -3 -3 -4 -3 -3 -2 -2 -2 -1 -1 -0 -0 -0 -0 -1 -0 0
-5 -5 -4 -4 -4 -4 -4 -5 -5 -5 -6 -7 -7 -7 -6 -6 -5 -5 -4 -4 -3 -3 -3 -3 -4 -4 -3 -3 -3 -2 -1 -1 -1 -1 -1 -0 -0 0
-5 -4 -4 -4 -4 -4 -4 -4 -5 -5 -6 -7 -7 -7 -7 -7 -6 -5 -5 -4 -4 -3 -3 -3 -4 -4 -4 -3 -3 -3 -1 -2 -2 -2 -2 -1 -1 -0
-6 -4 -4 -4 -5 -4 -4 -4 -5 -6 -7 -7 -7 -7 -7 -7 -6 -6 -5 -5 -5 -4 -3 -3 -3 -3 -2 -2 -1 -3 -3 -2 -2 -2 -2 -3 -2 -2
-5 -4 -4 -4 -4 -4 -4 -5 -5 -6 -7 -7 -7 -7 -7 -7 -6 -6 -6 -6 -5 -5 -4 -3 -4 -4 -4 -3 -2 -4 -4 -3 -2 -2 -2 -2 -2 -2
-3 -3 -3 -3 -4 -4 -5 -6 -7 -7 -8 -8 -7 -8 -8 -8 -7 -7 -6 -6 -5 -5 -4 -4 -4 -5 -5 -4 -3 -3 -5 -4 -3 -3 -3 -2 -2 -2
-4 -3 -3 -3 -4 -4 -5 -6 -6 -7 -7 -7 -7 -8 -8 -8 -7 -8 -7 -6 -6 -5 -5 -5 -5 -4 -4 -3 -3 -3 -4 -5 -4 -4 -4 -4 -4 -2
-3 -3 -4 -4 -4 -5 -6 -6 -6 -6 -7 -8 -8 -8 -8 -8 -8 -7 -8 -7 -6 -6 -6 -5 -5 -5 -4 -3 -4 -3 -4 -4 -4 -5 -5 -5 -5 -5

GFSNE_925_temp_024.txt.gz
Temp
5 4 4 4 3 4 4 4 3 1 2 3 3 3 3 3 2 1 1 1 1 0 0 1 1 1 1 1 1 1 1 2 2 4 5 5 5 6
4 4 3 3 4 3 3 3 3 3 1 3 3 3 2 1 0 0 -0 -0 -0 -0 0 1 1 1 1 0 1 1 2 2 3 4 4 5 4 5
4 4 2 2 3 3 3 3 3 2 1 1 1 1 0 -1 -1 -1 -1 -1 -0 0 0 1 1 1 1 0 1 1 1 2 3 3 3 4 4 4
4 3 3 2 2 2 2 1 0 -0 -0 -1 -1 -1 -1 -1 -1 -1 -1 -1 -0 -0 0 0 -0 -0 -0 -0 0 1 1 1 2 3 3 3 4 5
3 3 2 2 2 1 0 -1 -2 -2 -2 -2 -2 -2 -2 -2 -2 -2 -1 -1 -1 -1 -0 0 -1 -1 -1 -1 -0 1 1 1 1 2 2 2 3 4
2 2 2 2 1 -0 -1 -2 -3 -3 -3 -3 -3 -3 -3 -3 -2 -2 -2 -2 -2 -2 -1 -1 -1 -1 -1 -0 0 0 0 1 1 2 2 2 3 4
2 2 2 1 0 -1 -2 -3 -4 -4 -4 -4 -4 -4 -4 -3 -3 -3 -4 -4 -3 -2 -1 -1 -3 -2 -2 -1 -0 0 1 0 1 1 1 1 2 4
1 1 1 0 -1 -1 -3 -3 -4 -4 -5 -5 -5 -4 -4 -4 -5 -5 -5 -4 -4 -3 -3 -2 -2 -2 -3 -2 -1 -1 0 0 1 1 0 1 2 3
0 -0 -1 -1 -1 -2 -3 -4 -4 -5 -4 -4 -4 -4 -5 -5 -5 -5 -5 -5 -5 -4 -3 -3 -2 -1 -1 -0 0 0 0 0 0 1 -0 0 1 2
-0 -1 -1 -2 -3 -4 -4 -5 -6 -5 -5 -4 -5 -5 -5 -5 -5 -6 -6 -5 -5 -4 -3 -3 -3 -2 -1 -0 -0 -0 -0 0 0 0 1 0 0 -0
-1 -2 -2 -2 -3 -4 -5 -7 -7 -6 -6 -5 -6 -6 -6 -5 -5 -5 -6 -6 -5 -4 -3 -3 -3 -3 -2 -1 -0 0 -0 0 0 -0 -0 0 0 -0
-2 -2 -2 -3 -4 -5 -7 -7 -8 -7 -7 -7 -7 -6 -5 -5 -4 -5 -5 -5 -5 -5 -3 -4 -4 -4 -2 -0 -1 -1 -0 -0 -1 -1 -1 -1 -0 -1
-3 -3 -3 -5 -5 -5 -7 -7 -7 -7 -7 -7 -6 -6 -6 -5 -5 -5 -5 -5 -5 -5 -4 -3 -3 -3 -3 -3 -1 -1 -1 -1 -1 -1 -2 -1 -1 -0
-4 -4 -4 -4 -5 -6 -6 -6 -6 -6 -7 -6 -6 -6 -6 -6 -6 -5 -5 -4 -4 -4 -4 -4 -4 -3 -3 -3 -3 -2 -1 -0 -1 -1 -2 -2 -1 -1
-4 -4 -5 -5 -5 -5 -5 -5 -5 -6 -6 -6 -7 -6 -7 -6 -6 -5 -5 -5 -4 -4 -4 -3 -3 -3 -3 -3 -2 -2 -3 -1 -1 -1 -1 -1 -2 -1
-4 -5 -5 -4 -4 -4 -4 -4 -5 -5 -6 -6 -7 -7 -7 -7 -6 -6 -6 -5 -4 -3 -3 -3 -4 -4 -3 -3 -3 -2 -2 -1 -2 -1 -1 -1 -1 -1
-4 -4 -5 -4 -4 -4 -4 -4 -4 -5 -6 -7 -7 -7 -7 -7 -7 -6 -6 -5 -5 -4 -4 -3 -4 -4 -4 -3 -3 -3 -2 -2 -2 -2 -1 -1 -1 -1
-4 -5 -4 -4 -4 -4 -4 -4 -4 -5 -6 -6 -7 -7 -7 -7 -7 -7 -6 -6 -5 -5 -5 -4 -4 -4 -4 -3 -3 -3 -3 -2 -1 -1 -2 -1 -1 -0
-5 -5 -5 -4 -4 -4 -4 -4 -4 -5 -6 -7 -7 -7 -7 -8 -7 -7 -6 -6 -6 -6 -5 -4 -5 -4 -4 -3 -3 -3 -3 -3 -2 -2 -2 -2 -2 -2
-5 -5 -5 -4 -4 -4 -4 -4 -5 -6 -6 -7 -7 -8 -8 -8 -8 -7 -7 -7 -6 -6 -5 -5 -5 -5 -5 -5 -4 -4 -4 -3 -3 -2 -2 -2 -3 -2
-5 -5 -5 -4 -4 -4 -4 -4 -5 -6 -7 -7 -7 -8 -8 -8 -8 -8 -7 -7 -7 -6 -6 -5 -5 -5 -5 -4 -4 -4 -5 -4 -3 -3 -3 -3 -3 -3
-4 -4 -3 -3 -3 -3 -4 -5 -6 -6 -7 -7 -7 -8 -8 -8 -8 -8 -8 -8 -7 -7 -6 -6 -6 -5 -5 -4 -4 -4 -5 -5 -4 -4 -3 -3 -3 -4
-4 -4 -3 -3 -3 -3 -4 -5 -5 -6 -6 -7 -7 -8 -8 -8 -8 -8 -8 -8 -8 -8 -8 -8 -6 -5 -5 -4 -4 -4 -4 -5 -5 -5 -5 -5 -4 -4

GFSNE_925_temp_027.txt.gz
Temp
5 5 4 4 2 1 1 3 2 -2 0 2 2 2 2 1 1 0 -0 -0 -0 -1 -0 -1 -0 0 1 1 1 1 1 1 2 2 2 3 4 5
4 4 4 3 1 1 1 2 2 1 -3 0 0 0 0 -0 -1 -1 -1 -1 -1 -1 -1 -0 -0 -0 -0 0 0 1 1 1 1 1 1 2 3 4
4 4 3 2 1 1 1 1 0 -1 -2 -2 -2 -2 -2 -2 -2 -2 -2 -2 -1 -1 -1 -1 -1 -0 -1 -1 -0 0 -0 -0 -0 0 1 2 2 3
3 3 2 2 2 1 1 0 -0 -1 -3 -4 -4 -3 -3 -3 -3 -3 -3 -2 -2 -2 -2 -2 -1 -1 -1 -1 -1 -1 -0 -0 -0 0 1 2 3 1
3 2 2 2 1 1 0 -0 -1 -2 -3 -4 -4 -4 -4 -4 -4 -3 -3 -3 -3 -3 -3 -2 -2 -2 -2 -2 -2 -1 -1 -1 -0 -0 1 2 2 2
2 2 1 1 1 0 -0 -1 -2 -3 -4 -4 -5 -5 -5 -4 -4 -4 -4 -4 -5 -4 -4 -3 -3 -2 -2 -2 -1 -1 -1 -1 -1 -0 1 1 2 2
1 1 1 0 -0 -0 -2 -2 -3 -4 -4 -5 -6 -5 -5 -5 -5 -5 -5 -5 -5 -5 -4 -3 -3 -3 -2 -2 -3 -1 -1 -1 -1 -0 1 1 1 1
1 0 -0 -0 -1 -2 -3 -3 -4 -5 -5 -5 -6 -5 -5 -5 -5 -5 -6 -6 -6 -5 -5 -5 -4 -3 -3 -2 -3 -3 -2 -1 -1 -0 0 1 0 0
-0 -0 -1 -1 -2 -2 -3 -3 -4 -4 -6 -5 -5 -6 -6 -6 -6 -6 -6 -6 -6 -6 -6 -6 -4 -4 -3 -3 -2 -2 -1 -0 -0 -0 0 1 -0 -0
-1 -1 -1 -2 -2 -3 -3 -4 -5 -5 -6 -6 -6 -6 -7 -6 -6 -6 -6 -6 -6 -5 -6 -6 -4 -4 -3 -2 -2 -1 -1 -1 -1 -0 -0 1 -0 0
-1 -2 -2 -2 -3 -4 -4 -5 -6 -6 -6 -7 -7 -6 -6 -6 -6 -5 -5 -5 -6 -5 -5 -5 -4 -3 -3 -2 -1 -1 -1 -1 -1 -0 -0 -0 -0 -0
-2 -2 -3 -3 -4 -4 -5 -6 -7 -6 -7 -7 -6 -6 -6 -6 -6 -5 -6 -6 -5 -5 -4 -4 -4 -4 -4 -2 -2 -2 -2 -1 -1 -1 -1 -1 -1 -1
-3 -3 -4 -4 -4 -5 -5 -6 -6 -6 -7 -6 -6 -7 -6 -6 -6 -6 -6 -6 -6 -5 -4 -5 -4 -4 -4 -3 -3 -3 -3 -2 -1 -1 -2 -1 -1 -1
-2 -3 -4 -4 -4 -5 -5 -5 -5 -6 -6 -6 -6 -6 -7 -7 -7 -6 -6 -5 -5 -5 -4 -5 -5 -4 -4 -4 -3 -3 -4 -2 -2 -2 -2 -2 -1 -1
-3 -3 -4 -4 -4 -5 -5 -5 -5 -5 -5 -6 -6 -7 -7 -7 -7 -6 -6 -5 -5 -5 -5 -4 -4 -4 -4 -4 -4 -3 -3 -2 -3 -2 -2 -2 -2 -1
-3 -3 -4 -4 -4 -4 -4 -4 -4 -5 -5 -6 -6 -7 -7 -7 -7 -7 -7 -6 -6 -5 -4 -4 -4 -4 -4 -4 -3 -3 -3 -3 -2 -2 -2 -2 -2 -2
-3 -4 -5 -5 -4 -4 -4 -4 -4 -5 -5 -6 -6 -7 -7 -8 -7 -7 -7 -6 -6 -6 -6 -5 -4 -4 -4 -4 -4 -3 -3 -3 -2 -2 -2 -2 -2 -1
-4 -5 -5 -5 -5 -4 -4 -4 -4 -4 -5 -6 -7 -7 -8 -8 -8 -8 -7 -7 -7 -6 -6 -5 -5 -4 -4 -3 -3 -3 -4 -3 -3 -2 -2 -2 -2 -2
-5 -5 -5 -5 -5 -5 -4 -4 -4 -5 -6 -6 -7 -7 -8 -8 -8 -8 -8 -8 -8 -7 -6 -6 -5 -5 -8 -6 -4 -4 -4 -3 -3 -2 -2 -2 -3 -3
-5 -5 -5 -5 -5 -5 -4 -4 -4 -5 -6 -6 -7 -7 -8 -8 -8 -8 -8 -8 -8 -7 -7 -6 -6 -6 -6 -7 -5 -5 -5 -4 -3 -3 -2 -3 -3 -3
-4 -5 -5 -5 -4 -4 -4 -4 -4 -5 -5 -6 -7 -7 -8 -8 -8 -8 -8 -8 -8 -8 -8 -8 -7 -6 -5 -4 -5 -5 -5 -4 -4 -3 -3 -3 -4 -3
-4 -4 -4 -4 -4 -4 -4 -4 -5 -5 -5 -6 -7 -7 -8 -8 -8 -8 -8 -8 -8 -8 -8 -7 -7 -6 -5 -4 -5 -5 -6 -5 -5 -4 -3 -3 -3 -5
-4 -4 -4 -4 -4 -4 -4 -4 -4 -4 -5 -6 -7 -7 -8 -8 -8 -9 -8 -8 -8 -8 -9 -8 -7 -6 -6 -6 -5 -4 -5 -5 -5 -5 -5 -5 -4 -4

GFSNE_925_temp_030.txt.gz
Temp
5 5 4 4 4 3 2 0 -1 -2 -2 1 1 0 -0 -0 -0 -1 -1 -1 -2 -2 -2 -1 -1 -1 -0 -0 0 0 1 1 2 2 1 2 2 3
4 4 4 3 3 2 1 -0 -0 -1 -2 -1 -1 -1 -2 -2 -3 -3 -3 -3 -2 -2 -2 -2 -2 -2 -1 -1 -1 -1 -0 0 1 2 1 1 2 2
4 4 3 2 2 1 1 1 0 -0 -2 -2 -2 -3 -3 -4 -4 -3 -3 -3 -3 -3 -3 -2 -2 -2 -2 -2 -1 -1 -1 -1 -0 0 1 1 1 1
3 3 3 2 1 1 1 1 -0 -1 -2 -4 -4 -4 -4 -4 -4 -4 -4 -4 -4 -4 -4 -3 -3 -3 -2 -2 -2 -2 -2 -2 -1 -1 -1 -0 0 0
2 2 2 1 1 1 0 -0 -1 -2 -3 -4 -5 -4 -5 -4 -5 -5 -4 -5 -4 -4 -4 -4 -4 -3 -3 -3 -2 -3 -3 -2 -1 -1 -1 -0 0 1
2 2 1 1 1 0 -0 -2 -2 -3 -4 -4 -5 -6 -6 -5 -5 -5 -6 -5 -5 -5 -5 -5 -5 -5 -3 -3 -3 -3 -3 -2 -1 -1 -1 -0 0 1
1 1 1 0 -0 -1 -2 -2 -3 -4 -4 -5 -6 -6 -6 -6 -6 -6 -6 -6 -6 -6 -5 -5 -5 -5 -4 -3 -3 -3 -3 -3 -2 -1 -0 0 0 0
1 1 -0 -0 -1 -1 -2 -3 -4 -5 -5 -6 -6 -7 -7 -7 -7 -7 -7 -7 -6 -5 -6 -6 -5 -5 -4 -3 -3 -3 -2 -3 -2 -1 -1 -0 -0 0
0 -0 -1 -1 -2 -2 -3 -3 -4 -4 -5 -6 -7 -7 -7 -7 -7 -7 -7 -7 -7 -6 -6 -6 -4 -5 -4 -3 -3 -3 -2 -1 -1 -1 -1 -1 -0 -0
-0 -1 -1 -2 -2 -3 -3 -4 -4 -4 -5 -6 -7 -7 -7 -7 -7 -7 -6 -6 -6 -5 -6 -6 -5 -5 -4 -3 -3 -2 -2 -1 -1 -1 -1 -1 -0 -1
-1 -1 -2 -2 -3 -3 -4 -4 -5 -5 -6 -6 -6 -6 -7 -7 -6 -6 -6 -7 -6 -6 -5 -6 -5 -4 -4 -3 -3 -3 -3 -2 -1 -1 -1 -1 -1 -1
-1 -2 -2 -3 -3 -4 -4 -5 -6 -5 -6 -6 -6 -6 -6 -6 -6 -6 -7 -7 -7 -6 -4 -5 -5 -5 -5 -3 -3 -3 -3 -3 -2 -2 -1 -1 -1 -1
-1 -2 -2 -3 -4 -4 -5 -5 -5 -5 -6 -6 -6 -6 -7 -7 -7 -7 -7 -7 -7 -7 -5 -6 -5 -5 -5 -5 -4 -3 -4 -4 -3 -2 -2 -2 -2 -2
-1 -1 -2 -3 -4 -4 -5 -5 -5 -5 -6 -6 -6 -6 -7 -7 -7 -7 -7 -6 -6 -6 -5 -5 -5 -5 -5 -5 -4 -3 -4 -4 -3 -3 -2 -2 -2 -2
-1 -2 -2 -3 -4 -4 -4 -4 -5 -5 -5 -5 -6 -6 -7 -7 -7 -7 -7 -6 -6 -5 -5 -5 -5 -5 -5 -5 -5 -4 -4 -3 -3 -3 -2 -2 -2 -2
-2 -3 -3 -3 -4 -4 -4 -4 -4 -5 -5 -5 -6 -7 -7 -7 -7 -8 -7 -7 -7 -6 -5 -5 -5 -5 -5 -5 -5 -4 -3 -4 -3 -3 -2 -2 -2 -2
-2 -3 -4 -4 -5 -5 -4 -4 -4 -5 -5 -5 -6 -7 -7 -8 -8 -8 -8 -8 -8 -8 -7 -5 -5 -5 -5 -5 -5 -4 -4 -4 -3 -3 -3 -3 -2 -2
-3 -4 -4 -4 -5 -5 -5 -5 -4 -5 -5 -5 -6 -7 -8 -8 -8 -8 -8 -8 -8 -8 -7 -6 -6 -5 -5 -4 -5 -5 -4 -4 -3 -3 -3 -3 -3 -2
-4 -5 -6 -5 -4 -5 -5 -5 -4 -4 -5 -5 -6 -7 -8 -8 -8 -8 -8 -8 -8 -8 -7 -7 -7 -7 -6 -9 -5 -5 -5 -4 -4 -3 -2 -3 -3 -3
-4 -4 -5 -4 -4 -5 -5 -5 -4 -5 -5 -6 -6 -7 -7 -8 -8 -8 -8 -9 -8 -8 -8 -8 -8 -8 -7 -7 -6 -5 -6 -5 -4 -5 -3 -3 -3 -3
-4 -4 -4 -4 -4 -4 -5 -4 -4 -5 -5 -5 -6 -6 -7 -8 -8 -8 -8 -8 -8 -9 -9 -9 -8 -7 -6 -6 -6 -6 -6 -5 -4 -3 -3 -4 -4 -3
-4 -4 -4 -4 -4 -4 -4 -4 -4 -4 -5 -5 -5 -6 -7 -8 -8 -8 -9 -9 -8 -9 -9 -8 -7 -7 -6 -5 -5 -6 -6 -5 -5 -4 -4 -4 -3 -6
-3 -4 -4 -4 -4 -4 -4 -4 -4 -4 -4 -5 -5 -6 -7 -8 -8 -8 -9 -9 -8 -9 -9 -9 -8 -7 -7 -6 -5 -5 -5 -5 -5 -5 -5 -5 -4 -4

GFSNE_925_temp_033.txt.gz
Temp
5 5 4 4 4 3 2 1 0 -0 -2 0 1 0 -0 -1 -2 -2 -3 -3 -3 -3 -3 -2 -2 -2 -1 -1 -1 -0 0 0 1 1 2 2 2 2
5 4 4 4 3 2 2 1 -0 -1 -3 -1 -1 -1 -2 -2 -3 -4 -4 -4 -4 -3 -3 -3 -3 -2 -2 -2 -2 -1 -1 -0 -0 -0 1 1 2 2
4 4 3 3 2 2 1 0 -0 -1 -2 -1 -2 -2 -3 -3 -4 -4 -4 -4 -4 -4 -4 -4 -4 -4 -3 -3 -3 -2 -2 -2 -1 -1 -1 0 1 1
4 3 3 2 2 1 1 1 -0 -1 -2 -3 -3 -3 -3 -4 -4 -5 -4 -4 -5 -4 -5 -4 -4 -4 -4 -4 -3 -3 -2 -2 -3 -2 -1 -1 0 1
3 3 2 2 1 1 0 -0 -1 -2 -3 -4 -5 -4 -5 -5 -5 -5 -5 -5 -5 -5 -5 -5 -5 -5 -5 -4 -4 -4 -3 -3 -3 -3 -2 -1 -1 -1
3 2 2 1 1 1 -0 -1 -2 -2 -3 -4 -5 -6 -6 -6 -6 -6 -6 -6 -6 -6 -5 -5 -5 -5 -5 -5 -5 -4 -3 -3 -3 -3 -2 -1 -1 -0
2 2 1 1 0 -0 -1 -1 -2 -3 -4 -5 -6 -7 -7 -7 -7 -7 -7 -7 -7 -6 -5 -5 -5 -5 -4 -4 -4 -3 -3 -3 -3 -3 -3 -1 -1 -0
2 1 1 0 -0 -1 -1 -2 -3 -4 -5 -6 -6 -7 -7 -7 -7 -8 -8 -8 -7 -6 -6 -6 -6 -5 -4 -4 -3 -3 -4 -4 -3 -3 -3 -2 -1 -1
2 1 0 -0 -1 -2 -2 -3 -4 -4 -5 -6 -7 -7 -7 -7 -7 -8 -7 -7 -7 -6 -6 -6 -5 -5 -4 -4 -4 -3 -4 -4 -4 -2 -2 -1 -1 -1
1 0 -0 -1 -2 -2 -3 -3 -4 -4 -5 -6 -7 -7 -7 -7 -7 -7 -7 -7 -7 -7 -6 -6 -5 -5 -4 -4 -4 -3 -4 -3 -3 -2 -2 -1 -1 -1
0 -0 -1 -1 -2 -2 -3 -4 -5 -5 -5 -6 -6 -6 -6 -7 -7 -7 -7 -7 -7 -7 -6 -6 -5 -5 -5 -4 -3 -3 -4 -3 -3 -2 -1 -1 -1 -2
-0 -1 -1 -1 -2 -3 -4 -4 -5 -5 -5 -6 -6 -6 -6 -6 -7 -7 -7 -8 -8 -7 -5 -6 -6 -6 -5 -4 -3 -3 -4 -4 -4 -4 -3 -3 -2 -3
-0 -1 -1 -1 -2 -3 -4 -5 -5 -5 -5 -6 -6 -6 -6 -6 -7 -7 -7 -8 -8 -8 -6 -7 -6 -6 -5 -5 -4 -4 -4 -4 -4 -4 -3 -3 -3 -3
-2 -0 -1 -1 -2 -3 -4 -4 -5 -5 -6 -6 -6 -6 -6 -6 -7 -7 -7 -7 -7 -7 -6 -6 -6 -5 -5 -5 -5 -4 -4 -4 -4 -3 -3 -2 -3 -3
-1 -2 -1 -2 -3 -3 -4 -4 -5 -5 -5 -5 -5 -5 -6 -7 -7 -8 -8 -7 -7 -6 -6 -6 -6 -6 -5 -5 -5 -5 -5 -4 -3 -3 -3 -3 -3 -3
-2 -2 -2 -4 -4 -4 -4 -4 -5 -5 -5 -5 -5 -5 -6 -7 -8 -8 -8 -8 -8 -7 -6 -6 -6 -6 -6 -5 -5 -5 -5 -5 -4 -3 -3 -3 -3 -3
-2 -3 -5 -4 -4 -5 -5 -5 -4 -5 -5 -5 -5 -5 -6 -7 -8 -8 -8 -8 -8 -9 -8 -6 -6 -5 -5 -5 -5 -5 -5 -5 -4 -3 -3 -3 -3 -3
-3 -4 -4 -4 -5 -5 -5 -5 -4 -5 -5 -5 -5 -6 -6 -7 -8 -8 -8 -8 -9 -9 -8 -8 -7 -7 -6 -5 -5 -5 -5 -5 -4 -3 -3 -3 -3 -2
-4 -4 -4 -4 -4 -4 -5 -5 -5 -4 -5 -5 -5 -6 -6 -7 -8 -8 -8 -9 -8 -9 -8 -8 -8 -8 -7 -7 -6 -6 -6 -6 -5 -3 -4 -4 -4 -3
-3 -4 -4 -4 -5 -5 -5 -5 -4 -5 -5 -5 -5 -6 -6 -7 -8 -8 -9 -9 -9 -9 -9 -9 -8 -9 -8 -7 -7 -6 -6 -6 -6 -5 -4 -4 -4 -3
-3 -3 -4 -4 -5 -5 -4 -4 -5 -5 -5 -5 -5 -6 -6 -7 -8 -8 -9 -9 -9 -9 -9 -9 -8 -8 -7 -7 -8 -6 -6 -6 -5 -5 -4 -4 -4 -3
-4 -4 -4 -4 -5 -5 -5 -5 -4 -5 -5 -5 -5 -6 -6 -7 -8 -8 -9 -9 -9 -9 -9 -9 -7 -7 -7 -6 -5 -6 -6 -6 -5 -5 -4 -4 -4 -6
-4 -3 -3 -4 -4 -5 -5 -5 -5 -5 -4 -4 -5 -5 -6 -7 -7 -8 -9 -9 -9 -9 -9 -9 -8 -7 -7 -7 -6 -6 -6 -6 -6 -5 -6 -6 -6 -5

GFSNE_925_temp_036.txt.gz
Temp
5 5 5 4 4 3 3 2 1 1 1 0 0 -0 -0 -0 -1 -2 -2 -3 -3 -4 -4 -3 -3 -2 -2 -2 -1 -1 -1 -0 0 1 1 1 1 2
5 4 4 4 3 3 2 1 0 -1 -1 -1 -0 -1 -1 -2 -3 -3 -3 -4 -4 -4 -4 -4 -4 -3 -3 -3 -3 -2 -2 -1 -1 -0 0 -0 0 1
5 4 4 3 3 2 2 1 0 -1 -2 -1 -2 -2 -2 -3 -3 -4 -4 -4 -4 -4 -5 -5 -4 -4 -4 -4 -4 -3 -3 -2 -1 -1 -1 -1 -0 0
5 4 3 3 2 2 1 1 1 0 -2 -3 -2 -3 -3 -4 -4 -5 -5 -5 -5 -5 -5 -5 -5 -5 -5 -5 -5 -4 -4 -3 -3 -2 -2 -2 -2 -1
4 4 3 2 2 1 1 1 -0 -1 -2 -3 -4 -4 -4 -4 -5 -6 -6 -6 -6 -6 -6 -6 -5 -5 -5 -5 -5 -4 -4 -4 -4 -3 -3 -3 -3 -2
4 3 3 2 2 1 1 0 -1 -2 -2 -4 -4 -5 -5 -5 -6 -7 -7 -7 -7 -6 -5 -5 -5 -5 -4 -4 -5 -5 -5 -4 -4 -3 -3 -3 -3 -2
4 3 2 2 1 1 0 -0 -1 -2 -3 -4 -5 -6 -7 -7 -7 -7 -8 -8 -8 -6 -6 -6 -5 -5 -3 -4 -4 -4 -4 -4 -4 -4 -3 -3 -3 -2
3 3 2 1 1 0 -1 -1 -2 -3 -4 -5 -6 -7 -7 -7 -7 -8 -8 -8 -6 -6 -6 -6 -6 -5 -4 -4 -4 -4 -4 -4 -4 -3 -4 -3 -3 -3
3 2 1 1 0 -0 -1 -2 -3 -3 -4 -5 -6 -6 -7 -7 -7 -8 -8 -8 -7 -7 -7 -7 -6 -6 -4 -4 -4 -4 -4 -4 -4 -4 -4 -3 -3 -2
2 2 1 1 0 -1 -2 -3 -3 -4 -4 -5 -5 -6 -7 -7 -7 -7 -8 -8 -8 -7 -7 -7 -6 -6 -5 -4 -3 -4 -4 -4 -4 -4 -4 -3 -2 -2
2 1 1 -0 -0 -1 -2 -3 -3 -4 -4 -5 -6 -6 -7 -7 -7 -7 -7 -8 -8 -8 -7 -7 -6 -6 -6 -4 -3 -3 -3 -4 -4 -4 -4 -4 -3 -2
1 1 0 -0 -1 -1 -2 -3 -4 -4 -5 -5 -6 -6 -6 -6 -6 -7 -7 -9 -9 -8 -6 -7 -7 -7 -5 -4 -3 -4 -3 -4 -4 -4 -4 -4 -3 -3
-0 1 0 -1 -1 -1 -2 -3 -3 -4 -5 -5 -6 -6 -6 -6 -6 -7 -7 -8 -9 -9 -8 -8 -7 -7 -6 -5 -5 -4 -4 -4 -4 -3 -3 -3 -4 -3
-1 -0 -0 -1 -2 -3 -2 -3 -3 -4 -5 -6 -6 -6 -6 -5 -6 -7 -7 -8 -8 -8 -7 -7 -8 -7 -6 -6 -5 -5 -5 -5 -4 -4 -4 -3 -3 -3
-1 -1 -1 -1 -2 -3 -4 -4 -4 -5 -5 -6 -6 -6 -5 -5 -6 -7 -8 -8 -8 -7 -7 -7 -7 -7 -7 -6 -5 -5 -6 -5 -4 -4 -4 -3 -3 -3
-1 -1 -2 -3 -3 -4 -4 -5 -5 -5 -5 -5 -5 -5 -5 -6 -6 -7 -8 -8 -8 -8 -7 -7 -7 -7 -7 -7 -6 -6 -6 -6 -4 -4 -4 -3 -3 -3
-2 -3 -3 -4 -4 -5 -5 -5 -5 -5 -5 -5 -5 -5 -5 -6 -6 -7 -8 -9 -9 -9 -9 -7 -7 -7 -6 -6 -6 -6 -6 -6 -4 -4 -4 -3 -3 -4
-3 -4 -4 -5 -5 -5 -5 -5 -5 -5 -5 -5 -5 -5 -5 -6 -7 -7 -8 -9 -9 -9 -9 -8 -8 -8 -7 -6 -6 -6 -6 -6 -5 -4 -4 -4 -4 -4
-3 -3 -4 -4 -5 -5 -5 -5 -5 -4 -4 -5 -5 -5 -5 -6 -7 -7 -8 -9 -9 -9 -8 -8 -9 -9 -8 -7 -7 -6 -7 -6 -6 -5 -4 -4 -4 -4
-3 -3 -3 -4 -4 -5 -5 -5 -5 -4 -4 -5 -5 -5 -5 -6 -7 -7 -8 -9 -9 -9 -9 -9 -9 -9 -9 -8 -8 -7 -6 -6 -5 -5 -5 -4 -3 -4
-3 -3 -3 -4 -4 -5 -5 -5 -5 -5 -5 -5 -5 -5 -5 -6 -7 -7 -8 -9 -9 -9 -9 -9 -8 -8 -7 -8 -9 -7 -6 -6 -6 -6 -5 -5 -4 -4
-4 -4 -4 -4 -5 -4 -4 -5 -6 -6 -5 -5 -5 -5 -5 -6 -7 -7 -8 -9 -9 -9 -9 -9 -8 -7 -7 -6 -5 -7 -6 -6 -6 -6 -6 -6 -6 -4
-9 -7 -5 -5 -5 -5 -5 -5 -6 -6 -5 -5 -5 -5 -5 -6 -7 -7 -8 -9 -9 -9 -9 -9 -8 -8 -8 -7 -7 -6 -6 -6 -6 -6 -6 -6 -5 -6

GFSNE_925_temp_042.txt.gz
Temp
8 7 7 8 7 7 7 7 7 7 8 8 7 6 4 4 3 2 1 0 -1 -2 -3 -3 -3 -3 -3 -3 -2 -2 -1 -1 -1 -0 -0 0 1 1
7 7 7 7 7 6 6 6 6 6 6 6 6 5 4 3 2 1 1 -1 -1 -1 -3 -3 -4 -4 -4 -4 -3 -3 -3 -3 -2 -2 -1 -1 -0 0
6 6 6 6 6 6 6 6 6 6 5 6 5 5 4 2 2 1 1 -0 -0 -1 -2 -3 -4 -4 -4 -4 -4 -4 -4 -3 -3 -3 -2 -2 -1 -0
6 7 6 6 6 6 6 5 5 5 5 5 5 4 4 3 1 0 0 -0 -0 -1 -2 -3 -4 -4 -5 -5 -4 -4 -4 -4 -4 -3 -3 -3 -2 -2
6 6 6 6 6 6 6 5 5 5 4 4 4 4 3 2 1 1 0 -0 -0 -1 -1 -2 -3 -4 -4 -4 -4 -4 -4 -4 -4 -4 -4 -3 -3 -3
4 5 5 6 6 6 5 5 5 4 4 4 4 3 3 2 1 1 1 0 -0 -1 -1 -1 -2 -2 -3 -3 -3 -4 -4 -4 -4 -4 -4 -4 -4 -4
5 5 5 5 5 5 5 5 5 4 4 3 3 3 3 2 2 1 -0 -0 -1 -1 -1 -1 -1 -1 -1 -1 -1 -2 -3 -4 -4 -4 -4 -4 -3 -3
5 5 5 4 3 3 3 3 3 3 3 3 3 2 2 2 1 0 -0 -1 0 -0 -1 -1 -1 -1 -1 -0 -1 -2 -3 -4 -4 -4 -4 -4 -3 -3
4 5 5 5 4 3 3 2 1 1 1 1 1 1 1 1 0 -1 -1 -1 -1 -2 -2 -1 -1 -1 -1 -0 -1 -2 -3 -3 -4 -4 -4 -4 -3 -3
4 4 4 4 4 4 3 3 2 1 -0 -1 -1 0 0 -1 -1 -2 -2 -2 -2 -2 -2 -1 -1 -1 -1 -1 -1 -2 -3 -3 -3 -4 -4 -4 -4 -4
3 3 3 3 3 3 2 2 2 2 1 -0 -1 -1 -2 -3 -3 -3 -3 -2 -2 -1 -2 -2 -2 -2 -2 -2 -1 -2 -2 -3 -3 -4 -3 -4 -4 -4
2 3 2 2 1 1 1 1 1 1 1 -0 -2 -3 -3 -4 -5 -5 -4 -3 -2 -2 -2 -2 -2 -3 -2 -3 -2 -2 -2 -2 -3 -3 -3 -3 -3 -3
2 2 2 2 1 0 -0 -1 -0 0 0 -2 -2 -1 -1 -2 -2 -3 -3 -3 -2 -2 -2 -4 -4 -3 -3 -3 -3 -3 -3 -2 -2 -2 -1 -1 -2 -3
-1 0 1 1 0 -0 -1 -2 -2 -1 -2 -3 -3 -3 -1 -2 -1 -2 -2 -2 -3 -3 -4 -4 -4 -4 -4 -4 -3 -3 -2 -2 -2 -2 -2 -2 -2 -3
-1 -2 -2 -2 -2 -2 -2 -2 -2 -3 -3 -3 -3 -3 -3 -3 -2 -2 -3 -3 -4 -4 -4 -5 -5 -4 -4 -4 -4 -3 -3 -2 -3 -2 -3 -3 -3 -3
-3 -2 -3 -3 -3 -2 -2 -3 -3 -3 -3 -3 -3 -3 -3 -4 -3 -3 -3 -3 -4 -3 -4 -4 -5 -5 -5 -4 -4 -3 -3 -3 -3 -3 -3 -3 -3 -3
-6 -5 -3 -2 -2 -2 -2 -3 -3 -3 -3 -3 -3 -3 -3 -4 -4 -3 -3 -3 -4 -3 -3 -4 -4 -4 -5 -4 -4 -4 -3 -3 -3 -4 -3 -3 -3 -4
-4 -3 -2 -2 -2 -1 -2 -3 -3 -3 -3 -3 -3 -3 -3 -3 -4 -4 -4 -4 -3 -3 -3 -3 -4 -4 -4 -3 -4 -3 -4 -4 -4 -4 -3 -2 -2 -4
-6 -5 -4 -3 -2 -1 -2 -3 -3 -3 -3 -4 -3 -3 -4 -4 -4 -4 -4 -4 -4 -3 -3 -3 -4 -4 -3 -3 -3 -5 -5 -4 -4 -4 -3 -3 -3 -4
-6 -6 -6 -6 -5 -4 -2 -2 -2 -3 -4 -3 -3 -4 -4 -4 -4 -4 -3 -4 -3 -3 -3 -3 -3 -3 -4 -4 -5 -5 -6 -6 -5 -4 -4 -3 -3 -3
-8 -8 -8 -8 -7 -7 -6 -3 -3 -3 -4 -4 -4 -4 -4 -4 -4 -4 -3 -4 -4 -4 -4 -3 -3 -5 -6 -5 -5 -4 -5 -5 -6 -6 -5 -3 -2 -2
-10 -10 -10 -10 -9 -9 -8 -7 -5 -4 -4 -4 -4 -4 -4 -4 -4 -4 -4 -4 -5 -4 -4 -4 -4 -5 -4 -4 -3 -3 -3 -4 -5 -5 -5 -6 -5 -3
-12 -12 -11 -11 -11 -10 -10 -10 -9 -7 -4 -4 -4 -4 -5 -4 -4 -4 -4 -4 -4 -4 -5 -4 -4 -4 -4 -4 -5 -4 -4 -4 -4 -4 -5 -6 -6 -6

GFSNE_925_temp_045.txt.gz
Temp
8 8 8 8 8 9 9 9 8 8 9 9 9 8 8 7 6 5 4 3 2 1 1 -0 -2 -2 -3 -3 -2 -2 -2 -1 -1 -1 -0 -0 0 1
7 6 6 8 8 8 8 8 8 8 8 8 8 7 7 7 6 4 3 3 2 1 1 -0 -2 -2 -3 -3 -3 -3 -3 -2 -2 -2 -1 -1 -1 -1
6 5 6 7 8 8 8 8 7 7 8 8 8 7 7 6 6 4 3 3 2 2 1 0 -1 -2 -3 -4 -4 -4 -4 -3 -3 -2 -2 -2 -1 -1
5 4 5 7 7 7 7 7 7 7 7 7 7 7 6 6 5 4 3 3 2 2 1 0 -0 -1 -2 -3 -3 -4 -4 -4 -3 -3 -3 -3 -2 -2
4 4 5 6 7 6 7 7 7 7 7 7 6 6 6 5 5 4 3 3 2 2 2 1 0 -1 -1 -1 -2 -2 -3 -3 -3 -3 -3 -3 -3 -3
3 4 5 6 6 6 7 7 7 7 6 6 6 6 6 5 5 4 3 3 3 2 2 1 1 0 -0 -0 -1 -1 -2 -2 -3 -3 -3 -3 -4 -4
3 3 5 5 6 6 6 6 7 6 6 6 6 6 5 5 5 4 3 3 2 1 1 1 1 0 0 0 0 0 -1 -2 -2 -3 -3 -3 -4 -4
2 4 6 6 6 6 5 5 4 4 5 5 5 5 5 5 4 3 3 2 2 1 1 1 0 0 0 1 1 -0 -1 -1 -2 -3 -3 -4 -4 -4
4 5 5 6 6 6 6 5 4 4 3 3 3 4 4 3 3 2 2 1 1 1 -0 0 0 0 0 0 -0 -1 -1 -1 -2 -2 -3 -3 -3 -4
4 5 5 5 5 5 5 5 4 3 2 2 1 1 2 2 2 1 1 -0 -1 -1 -0 0 0 0 -0 -1 -1 -1 -1 -2 -2 -2 -3 -3 -3 -3
4 4 4 4 4 4 3 3 3 4 3 3 2 1 0 1 0 -0 -1 -1 -1 -1 -0 0 -0 -0 -1 -1 -1 -1 -2 -2 -2 -2 -2 -2 -2 -2
2 3 3 3 3 3 2 2 1 2 2 2 1 -0 -0 -1 -2 -2 -2 -2 -1 -1 -0 -0 -1 -1 -1 -1 -1 -2 -2 -2 -2 -2 -2 -2 -1 -2
-1 -0 0 1 1 0 -1 -1 0 1 1 1 0 -1 -2 -1 -2 -3 -3 -3 -2 -1 -1 -1 -2 -2 -2 -2 -2 -3 -3 -3 -3 -2 -1 -2 -2 -2
-2 -2 -1 -1 -2 -1 -1 -1 -1 -2 -1 -1 -1 -1 -1 -1 -2 -1 -2 -3 -2 -1 -1 -2 -3 -3 -3 -3 -3 -3 -3 -2 -2 -2 -2 -2 -2 -2
-4 -4 -4 -4 -3 -2 -2 -1 -2 -2 -2 -2 -2 -1 -1 -1 -1 -3 -3 -2 -1 -2 -2 -2 -3 -3 -3 -3 -3 -3 -2 -2 -2 -2 -3 -3 -3 -3
-5 -5 -5 -4 -3 -3 -2 -2 -3 -2 -2 -2 -2 -1 -1 -2 -3 -3 -3 -3 -2 -2 -2 -2 -3 -3 -3 -4 -4 -3 -3 -3 -3 -3 -3 -3 -3 -3
-7 -5 -3 -2 -2 -1 -1 -1 -1 -2 -2 -3 -2 -2 -2 -2 -3 -3 -3 -3 -3 -2 -2 -2 -2 -3 -3 -3 -3 -3 -3 -3 -3 -4 -4 -3 -2 -4
-6 -4 -4 -4 -4 -4 -3 -4 -1 -2 -3 -3 -2 -2 -2 -2 -3 -3 -3 -3 -3 -2 -2 -2 -2 -2 -3 -3 -3 -3 -3 -3 -4 -4 -3 -3 -2 -4
-5 -5 -6 -6 -6 -5 -5 -4 -6 -3 -3 -3 -3 -2 -2 -2 -3 -3 -3 -3 -3 -2 -2 -2 -2 -3 -2 -3 -3 -4 -4 -4 -4 -4 -3 -3 -3 -3
-6 -6 -6 -7 -8 -7 -7 -7 -6 -6 -2 -2 -3 -3 -3 -3 -3 -3 -3 -3 -3 -2 -2 -2 -2 -2 -2 -3 -4 -4 -5 -5 -5 -4 -4 -4 -3 -3
-7 -8 -8 -8 -9 -9 -9 -8 -8 -7 -5 -3 -3 -3 -3 -3 -3 -3 -3 -4 -3 -2 -2 -2 -2 -3 -4 -4 -4 -4 -4 -4 -5 -5 -5 -4 -3 -3
-9 -10 -10 -10 -10 -10 -10 -10 -9 -9 -8 -7 -4 -3 -3 -4 -3 -3 -3 -3 -3 -3 -2 -2 -2 -3 -3 -3 -3 -3 -3 -4 -4 -5 -5 -5 -6 -4
-11 -11 -12 -12 -12 -11 -11 -11 -10 -10 -10 -8 -7 -6 -4 -4 -4 -3 -4 -4 -4 -3 -3 -3 -3 -3 -3 -3 -3 -3 -3 -3 -3 -4 -5 -4 -5 -5

GFSNE_925_temp_048.txt.gz
Temp
8 9 8 9 8 8 8 9 8 4 6 8 8 8 8 8 7 7 6 4 4 3 3 2 1 0 -1 -1 -1 -2 -2 -2 -2 -1 -1 -0 0 0
8 7 7 7 7 7 8 8 8 8 4 7 8 8 8 7 7 6 5 4 4 3 2 2 2 1 -0 -1 -1 -2 -2 -3 -2 -2 -2 -1 -1 -1
6 6 6 5 6 7 7 8 8 7 6 7 7 7 7 7 7 6 5 4 4 3 3 2 1 1 1 -0 -1 -1 -2 -3 -3 -3 -2 -2 -2 -2
7 6 5 5 6 7 7 7 7 7 7 6 7 7 7 7 6 6 5 5 4 3 3 2 2 1 1 -0 -0 -0 -1 -2 -3 -3 -3 -3 -2 -2
6 4 5 5 5 5 6 6 6 6 6 7 6 6 6 6 6 6 5 4 4 3 3 2 2 1 1 1 0 -0 -0 -1 -1 -3 -3 -3 -3 -3
5 4 4 4 4 5 5 6 6 6 6 6 6 6 6 6 5 5 5 4 4 3 2 2 2 1 1 0 0 0 0 -0 -1 -2 -3 -3 -3 -3
4 4 3 4 4 5 5 5 6 5 5 5 5 5 5 5 5 5 4 4 3 3 2 1 1 1 0 0 0 0 0 -0 -1 -2 -2 -3 -3 -3
4 3 3 4 5 6 6 6 6 5 4 4 3 4 4 4 4 4 4 3 1 2 1 1 1 -0 0 0 0 0 -1 -1 -1 -1 -2 -2 -2 -3
3 3 3 5 5 5 5 5 5 5 5 4 3 3 3 3 3 3 3 2 2 1 1 -0 -0 -0 -0 0 -0 -0 -1 -1 -2 -2 -2 -2 -2 -2
3 4 4 4 4 4 4 4 3 3 3 3 3 3 2 2 2 2 2 0 1 0 -0 -1 -1 -0 0 -0 -1 -1 -1 -2 -2 -2 -2 -2 -2 -2
2 2 2 2 2 1 1 0 1 2 2 2 2 3 2 2 1 1 1 -0 -2 -1 -1 -1 -1 -0 -1 -1 -1 -1 -2 -2 -3 -3 -3 -2 -2 -2
0 0 0 -0 -0 -1 -1 -2 -2 -2 -1 -1 -0 1 2 1 0 -1 -1 -3 -3 -3 -2 -1 -1 -1 -2 -2 -2 -2 -2 -3 -3 -3 -3 -2 -2 -2
-3 -3 -3 -3 -3 -2 -2 -2 -3 -2 -3 -3 -2 -1 -0 -1 -1 -2 -1 -2 -3 -4 -2 -2 -1 -2 -2 -3 -3 -3 -3 -3 -3 -3 -2 -2 -2 -2
-4 -4 -4 -5 -4 -3 -4 -4 -3 -2 -3 -3 -3 -2 -2 -2 -1 -2 -2 -2 -2 -3 -2 -2 -1 -2 -3 -4 -4 -4 -4 -3 -3 -3 -3 -3 -3 -3
-5 -5 -5 -4 -4 -3 -3 -2 -2 -2 -3 -3 -3 -2 -2 -2 -1 -2 -2 -2 -3 -3 -3 -2 -2 -2 -3 -3 -4 -4 -4 -4 -3 -3 -3 -3 -3 -3
-7 -6 -5 -5 -4 -4 -4 -3 -3 -4 -3 -3 -2 -2 -2 -2 -2 -2 -2 -3 -3 -3 -3 -2 -2 -2 -3 -3 -3 -4 -4 -4 -3 -3 -3 -3 -3 -4
-7 -7 -6 -4 -5 -6 -6 -5 -5 -5 -5 -3 -2 -3 -2 -2 -2 -3 -3 -3 -3 -3 -3 -2 -2 -2 -2 -3 -3 -3 -4 -4 -4 -4 -3 -4 -3 -4
-7 -6 -5 -6 -7 -7 -7 -7 -7 -7 -6 -7 -2 -2 -2 -2 -2 -2 -3 -3 -3 -4 -3 -3 -2 -2 -2 -3 -3 -3 -3 -4 -4 -4 -4 -4 -4 -4
-6 -6 -6 -7 -7 -8 -8 -8 -8 -8 -8 -7 -5 -3 -3 -2 -2 -3 -3 -3 -3 -4 -4 -3 -2 -2 -7 -7 -3 -3 -4 -4 -4 -4 -4 -4 -4 -3
-8 -8 -8 -9 -9 -9 -9 -9 -9 -9 -9 -9 -8 -4 -3 -3 -3 -3 -3 -3 -4 -4 -4 -3 -2 -2 -3 -7 -4 -4 -3 -5 -5 -5 -5 -4 -4 -3
-9 -9 -10 -10 -11 -11 -11 -11 -10 -10 -10 -10 -9 -8 -5 -3 -3 -3 -3 -3 -3 -4 -4 -3 -2 -2 -3 -4 -5 -4 -3 -3 -4 -5 -5 -5 -5 -4
-10 -11 -11 -12 -12 -12 -12 -12 -12 -11 -11 -11 -10 -10 -9 -7 -3 -3 -3 -3 -4 -4 -4 -3 -2 -3 -3 -4 -4 -3 -3 -4 -4 -5 -5 -5 -4 -7
-12 -12 -12 -13 -13 -13 -13 -13 -13 -13 -12 -12 -11 -11 -11 -10 -9 -5 -4 -3 -4 -4 -4 -3 -3 -3 -3 -3 -3 -3 -3 -4 -4 -5 -4 -4 -4 -4

GFSNE_925_temp_054.txt.gz
Temp
11 10 10 9 8 8 7 7 6 4 5 7 7 8 8 8 8 7 7 7 7 6 6 5 4 4 3 2 1 1 1 1 0 -0 -0 -0 -0 -0
9 9 7 7 7 7 7 7 6 5 4 6 7 7 7 7 7 7 7 7 6 6 6 5 4 3 3 2 2 1 1 1 0 -0 -0 -1 -1 -1
8 7 6 6 6 7 7 7 6 6 4 5 5 6 6 6 6 6 7 7 7 6 6 5 4 3 3 3 2 2 1 1 0 -0 -0 -1 -1 -1
7 7 6 6 6 6 6 5 5 5 5 4 5 5 5 5 5 5 6 6 6 6 6 5 4 4 3 3 2 2 2 1 0 -0 -0 -1 -1 -1
7 6 6 5 6 5 5 4 4 4 4 4 3 4 4 5 5 5 5 5 5 4 4 3 2 3 3 3 2 2 1 1 0 0 -0 -0 -1 -1
6 6 5 5 5 5 4 4 3 3 3 3 3 3 3 4 3 3 4 4 5 4 4 3 3 2 3 2 2 1 1 0 0 -0 -0 -1 -1 -1
5 5 5 5 4 4 3 2 2 2 2 1 1 1 1 2 2 2 2 2 3 3 3 2 3 2 2 2 1 1 0 0 -0 -0 -1 -1 -1 -1
4 5 5 4 3 3 2 2 1 1 0 -0 -0 -1 -0 1 1 1 0 0 0 1 1 1 -0 -0 -0 -0 1 0 0 -0 -0 -1 -1 -2 -2 -2
4 4 3 2 2 2 1 1 1 1 -1 -2 -2 -2 -2 -2 -1 -2 -2 -1 -1 0 0 -0 -0 -1 -1 0 0 -0 -0 -0 -1 -1 -2 -2 -2 -3
3 2 2 1 1 0 0 -0 -1 -1 -1 -2 -2 -3 -3 -3 -3 -3 -3 -3 -2 -1 -1 -2 -2 -2 -2 -0 -0 -1 -1 -1 -1 -2 -2 -3 -3 -3
1 1 0 -0 -1 -1 -2 -3 -3 -3 -3 -3 -3 -3 -3 -3 -3 -4 -4 -3 -2 -1 -2 -2 -2 -2 -3 -1 -1 -1 -1 -2 -2 -2 -3 -3 -3 -3
0 -0 -1 -1 -2 -3 -4 -4 -5 -5 -5 -5 -5 -4 -3 -3 -4 -3 -3 -4 -3 -3 -1 -3 -3 -3 -3 -2 -2 -2 -2 -2 -3 -3 -3 -4 -3 -3
-1 -2 -3 -3 -3 -4 -5 -5 -6 -5 -5 -5 -6 -6 -5 -5 -4 -4 -3 -3 -3 -2 -2 -2 -3 -4 -3 -2 -2 -2 -2 -3 -3 -3 -4 -4 -3 -4
-3 -4 -4 -4 -5 -5 -6 -6 -6 -7 -7 -7 -8 -7 -7 -7 -6 -5 -4 -3 -3 -3 -2 -3 -3 -3 -3 -4 -3 -3 -3 -3 -3 -3 -4 -4 -4 -4
-4 -5 -5 -5 -6 -6 -7 -7 -8 -8 -9 -9 -8 -9 -9 -8 -8 -6 -4 -3 -3 -3 -3 -3 -3 -3 -3 -3 -3 -3 -3 -3 -3 -3 -4 -4 -4 -4
-6 -6 -6 -6 -7 -7 -8 -9 -9 -9 -10 -10 -10 -10 -10 -9 -8 -7 -3 -3 -3 -3 -3 -4 -3 -4 -4 -3 -3 -3 -3 -4 -3 -3 -4 -4 -4 -4
-6 -7 -7 -8 -8 -9 -9 -10 -11 -11 -11 -11 -11 -11 -11 -10 -9 -8 -6 -3 -3 -3 -3 -3 -4 -4 -4 -4 -4 -3 -3 -3 -3 -3 -4 -4 -4 -4
-7 -8 -9 -9 -10 -10 -11 -11 -12 -12 -12 -12 -12 -12 -12 -11 -10 -9 -9 -4 -4 -3 -4 -4 -4 -4 -4 -4 -4 -3 -3 -3 -3 -3 -4 -5 -4 -4
-8 -9 -10 -11 -11 -12 -12 -12 -13 -13 -13 -13 -13 -13 -12 -12 -11 -11 -9 -8 -3 -3 -3 -3 -4 -4 -7 -7 -3 -3 -3 -3 -3 -4 -4 -5 -5 -4
-9 -10 -11 -12 -12 -13 -13 -13 -14 -14 -14 -14 -14 -14 -13 -14 -12 -12 -11 -10 -7 -3 -4 -4 -4 -4 -5 -6 -5 -3 -3 -3 -4 -4 -4 -4 -4 -4
-11 -11 -12 -12 -13 -14 -14 -14 -15 -15 -15 -15 -15 -15 -15 -15 -14 -12 -12 -11 -10 -6 -4 -4 -3 -3 -4 -4 -6 -4 -3 -4 -4 -4 -4 -4 -5 -5
-12 -12 -13 -13 -14 -14 -15 -15 -15 -15 -15 -16 -16 -15 -15 -15 -15 -14 -13 -13 -12 -9 -9 -5 -4 -4 -5 -4 -4 -4 -4 -4 -4 -4 -5 -4 -5 -8
-13 -14 -14 -14 -15 -15 -16 -16 -16 -16 -16 -16 -16 -16 -16 -16 -16 -15 -15 -13 -12 -11 -10 -7 -5 -5 -5 -4 -3 -4 -4 -4 -4 -4 -4 -4 -4 -4

GFSNE_925_temp_060.txt.gz
Temp
13 13 11 11 11 11 10 10 9 6 5 7 8 8 7 7 7 7 7 6 7 7 7 6 6 6 6 6 6 6 5 5 4 4 3 3 2 2
12 12 11 11 10 9 8 8 8 7 5 7 6 6 6 6 6 6 6 5 5 5 5 5 5 5 5 5 5 5 5 4 3 2 3 2 2 2
11 11 11 10 9 8 8 7 6 6 4 4 5 5 5 5 5 5 5 4 5 5 5 5 5 5 5 5 4 4 4 3 3 1 1 1 2 2
11 10 9 9 8 8 7 6 6 5 4 3 3 3 3 4 4 4 4 4 4 4 4 4 4 4 4 4 4 3 3 3 3 1 0 -0 1 1
11 10 9 8 7 6 6 5 5 4 3 2 1 2 2 3 3 2 2 2 2 3 2 2 2 2 2 2 3 3 3 2 2 1 1 -0 0 0
10 8 8 8 7 5 5 4 4 4 3 2 1 1 1 1 1 0 -0 -0 -0 1 1 0 1 0 0 1 1 1 2 2 1 0 -0 -1 -1 -1
8 7 7 6 6 5 4 4 3 3 2 1 0 -0 -0 -1 -1 -2 -3 -3 -2 -1 -1 -1 -1 -1 -1 -0 0 1 1 1 0 -0 -1 -2 -1 -2
7 5 5 5 4 4 3 3 3 2 1 -0 -1 -2 -2 -2 -3 -3 -3 -4 -3 -2 -2 -3 -3 -3 -3 -3 -2 -1 -0 -1 -0 -1 -2 -2 -2 -1
6 5 4 3 3 3 2 2 1 1 0 -1 -2 -3 -3 -3 -4 -4 -5 -5 -5 -4 -4 -4 -4 -4 -3 -3 -2 -2 -1 -2 -2 -2 -2 -2 -1 -1
5 4 3 2 1 1 1 -0 0 -1 -1 -2 -3 -4 -4 -4 -5 -5 -5 -5 -5 -4 -4 -4 -3 -3 -3 -2 -2 -2 -2 -2 -2 -3 -3 -2 -2 -2
3 2 2 0 -1 -1 -1 -0 -1 -2 -3 -4 -4 -4 -5 -5 -5 -6 -6 -5 -5 -4 -4 -4 -4 -3 -3 -2 -1 -1 -2 -2 -2 -2 -2 -2 -2 -3
-0 -1 -1 -1 -1 -1 -1 -2 -3 -5 -5 -5 -4 -4 -5 -5 -5 -6 -7 -7 -6 -5 -3 -4 -3 -4 -3 -2 -2 -1 -2 -3 -2 -2 -3 -3 -3 -3
-1 -2 -2 -2 -2 -3 -3 -4 -5 -6 -6 -6 -6 -6 -6 -7 -7 -7 -7 -8 -8 -8 -6 -6 -4 -4 -4 -3 -3 -3 -3 -3 -3 -3 -3 -3 -3 -4
-1 -2 -2 -3 -4 -5 -6 -6 -6 -7 -7 -7 -8 -9 -9 -10 -9 -9 -9 -8 -9 -8 -7 -7 -6 -4 -4 -4 -4 -4 -3 -3 -3 -3 -3 -3 -4 -4
-2 -3 -4 -5 -6 -6 -7 -7 -7 -8 -9 -10 -10 -11 -11 -11 -11 -11 -10 -10 -9 -8 -6 -5 -5 -4 -4 -4 -5 -5 -4 -3 -3 -3 -3 -3 -4 -4
-4 -5 -6 -6 -7 -7 -8 -8 -9 -10 -11 -11 -12 -12 -12 -12 -12 -11 -11 -11 -11 -8 -6 -5 -4 -4 -4 -5 -5 -5 -5 -4 -3 -3 -3 -4 -4 -4
-5 -7 -7 -8 -8 -9 -9 -10 -10 -11 -12 -12 -13 -13 -13 -13 -13 -13 -13 -12 -11 -11 -10 -7 -6 -4 -4 -4 -5 -5 -5 -5 -4 -3 -4 -4 -3 -4
-7 -8 -9 -9 -9 -10 -11 -11 -12 -12 -13 -13 -14 -14 -14 -14 -14 -14 -14 -13 -12 -12 -11 -10 -9 -6 -4 -5 -5 -5 -5 -5 -4 -4 -4 -5 -4 -4
-8 -9 -9 -10 -11 -11 -11 -12 -13 -13 -14 -14 -15 -15 -15 -16 -15 -15 -15 -14 -14 -13 -12 -12 -10 -8 -4 -5 -4 -4 -5 -4 -4 -4 -4 -4 -4 -4
-9 -10 -11 -11 -12 -12 -13 -13 -14 -14 -15 -15 -15 -15 -16 -16 -16 -16 -16 -16 -15 -15 -13 -11 -10 -9 -9 -5 -5 -4 -4 -3 -4 -4 -4 -4 -4 -4
-10 -11 -11 -12 -13 -14 -14 -15 -15 -15 -16 -16 -16 -16 -16 -17 -17 -17 -17 -17 -17 -15 -13 -12 -11 -11 -10 -8 -5 -5 -4 -3 -4 -4 -4 -4 -5 -5
-12 -12 -13 -13 -14 -15 -15 -16 -16 -16 -16 -17 -17 -17 -17 -17 -17 -17 -17 -17 -17 -16 -15 -14 -13 -11 -10 -7 -5 -6 -5 -4 -4 -4 -4 -4 -5 -5
-13 -14 -14 -15 -15 -16 -16 -17 -17 -17 -18 -18 -18 -18 -17 -17 -17 -18 -18 -18 -17 -16 -16 -14 -13 -12 -10 -9 -6 -6 -6 -4 -4 -4 -4 -4 -5 -5